CAPE
0 0 0 56 102 103 68 22 29 91 56 159 260 431 476 505 482 522 544 564 770 1041 1279 1329 1234 1320 1493 1736 1821 1885 1842 1776 1842
0 0 0 5 104 155 148 113 40 38 68 109 317 374 504 538 615 705 831 874 909 1069 1207 1377 1349 1210 1412 1706 1691 1774 1997 2176 2175
0 0 0 0 5 134 193 171 141 76 86 142 175 419 434 501 585 774 1050 1328 1124 1065 1238 1271 1523 1828 2039 2037 1904 2063 2257 2398 2192
0 0 0 0 0 2 135 196 239 236 219 286 308 525 559 567 573 719 870 1208 1695 1845 1701 1595 1534 1540 1568 1899 2151 2166 2530 2506 2507
0 0 0 0 0 0 14 138 127 342 400 428 505 568 809 834 850 886 952 1031 1189 1605 1883 1866 2034 2147 2161 2164 2002 2160 2387 2189 2138
0 0 0 0 0 0 0 46 93 154 473 573 678 703 891 1059 1168 1301 1319 1295 1302 1340 1510 1702 1886 2120 1971 2044 2279 2356 2059 2068 2241
0 0 0 0 0 0 0 0 48 2 305 670 820 915 1147 1269 1431 1574 1671 1765 1797 1750 1765 1907 1921 1982 2101 2152 2232 2104 1953 2181 2127
0 0 0 0 0 0 0 0 2 0 115 560 906 1040 1321 1500 1733 1877 2022 2137 2183 2182 2203 2228 2201 2192 2182 2190 1711 2030 2166 1666 1256
0 0 0 0 0 0 0 0 0 0 40 424 890 1068 1314 1458 1583 1837 2035 2140 2241 2176 2039 1972 1879 1711 1686 1773 2227 1482 1330 760 501
0 0 0 0 0 0 0 0 0 0 10 640 983 1186 1443 1529 1709 1854 1873 1604 569 430 392 286 306 346 453 321 46 134 656 553 645
0 0 0 0 0 0 0 0 0 0 290 930 1162 1411 1567 1648 1777 1697 810 6 0 40 157 31 68 576 202 6 13 83 9 34 168
0 0 0 0 0 0 0 0 7 185 738 1122 1293 1382 1530 1592 1551 472 137 47 22 8 0 0 0 39 2 0 11 0 2 0 1
0 8 17 0 0 291 132 106 436 792 1030 1193 1285 1308 1365 1570 1117 529 323 152 0 3 0 2 64 8 27 42 18 1 0 0 0
68 228 169 0 212 621 618 715 824 1027 1167 1287 1237 1583 1559 1272 969 833 111 0 7 2 38 62 32 112 133 113 3 0 0 0 0
617 998 97 355 1243 1561 1425 1177 1086 1242 1332 1657 1456 1341 801 503 15 21 65 52 55 140 197 246 260 262 176 0 0 0 0 0 0
1236 794 703 1508 1790 1598 1442 1377 1495 1560 1201 857 861 714 140 152 23 71 228 192 220 280 272 371 357 333 68 0 0 0 0 0 0
1237 1596 2067 1928 1826 1667 1328 1132 1056 789 613 499 311 286 123 36 93 63 1 0 63 192 247 218 30 0 0 0 0 0 0 0 0
1624 1365 1690 2010 1684 982 665 462 216 225 217 158 157 160 75 38 1 0 0 0 0 0 0 0 0 0 0 0 0 0 0 0 0
594 710 648 533 346 47 0 0 1 0 0 2 7 58 26 0 0 0 0 0 0 0 0 0 0 0 0 0 0 0 0 0 0
41 177 216 165 38 0 0 0 0 0 0 0 0 0 0 0 0 0 0 0 0 0 0 0 0 0 0 0 0 0 0 0 0
CIN
0 0 -12 -645 -616 -615 -690 -798 -787 -659 -851 -671 -679 -587 -555 -529 -501 -457 -436 -424 -371 -313 -272 -256 -249 -272 -256 -229 -209 -192 -171 -153 -146
0 0 0 -302 -640 -622 -626 -688 -808 -838 -813 -751 -668 -594 -580 -570 -521 -473 -429 -423 -388 -336 -313 -255 -259 -281 -246 -221 -213 -205 -172 -133 -116
0 0 0 0 -294 -663 -614 -632 -657 -760 -779 -762 -767 -634 -603 -580 -562 -503 -418 -361 -376 -365 -310 -300 -232 -189 -177 -167 -181 -164 -133 -114 -100
0 0 0 0 0 -222 -646 -613 -637 -665 -698 -704 -760 -653 -610 -582 -600 -563 -475 -377 -301 -268 -257 -254 -243 -237 -213 -168 -142 -130 -89 -78 -70
0 0 0 0 0 0 -781 -690 -707 -667 -674 -661 -672 -715 -618 -581 -547 -554 -491 -450 -398 -316 -237 -218 -182 -153 -135 -125 -127 -108 -82 -85 -77
0 0 0 0 0 0 0 -762 -741 -774 -702 -657 -633 -700 -631 -569 -525 -495 -447 -411 -394 -380 -309 -249 -188 -132 -126 -115 -98 -85 -98 -86 -49
0 0 0 0 0 0 0 0 -744 -467 -758 -706 -647 -650 -622 -577 -505 -459 -404 -364 -327 -292 -254 -205 -180 -143 -113 -106 -98 -92 -90 -61 -50
0 0 0 0 0 0 0 0 -157 0 -822 -824 -730 -747 -641 -581 -489 -405 -342 -306 -258 -215 -185 -165 -150 -119 -123 -121 -146 -110 -72 -94 -128
0 0 0 0 0 0 0 0 0 0 -986 -955 -842 -781 -675 -609 -552 -441 -357 -299 -244 -216 -199 -176 -158 -169 -168 -150 -101 -148 -143 -205 -218
0 0 0 0 0 0 0 0 0 0 -1099 -1040 -913 -788 -679 -637 -533 -426 -378 -353 -718 -725 -675 -756 -753 -514 -318 -345 -579 -394 -234 -246 -184
0 0 0 0 0 0 0 0 0 0 -1202 -997 -898 -854 -702 -618 -526 -460 -669 -855 0 -1041 -825 -1009 -973 -494 -518 -598 -259 -350 -518 -498 -273
0 0 0 0 0 0 0 0 -859 -1238 -1097 -968 -883 -852 -780 -639 -573 -894 -1037 -1070 -1012 -939 0 0 0 -774 -390 0 -380 0 -217 0 -89
0 -1107 -1069 0 0 -1262 -1279 -1443 -1262 -1152 -1054 -962 -932 -924 -837 -680 -748 -886 -823 -915 0 -687 0 -51 -732 -778 -610 -389 -408 -27 0 0 0
-1098 -988 -922 0 -978 -1057 -1079 -1148 -1119 -1086 -1052 -944 -1017 -820 -735 -706 -709 -654 -1045 0 -322 -926 -839 -728 -588 -398 -331 -289 -315 0 0 0 0
-878 -801 -874 -1154 -1003 -1010 -1058 -1041 -999 -1047 -975 -879 -919 -835 -929 -831 -407 -644 -827 -858 -768 -666 -602 -454 -347 -264 -216 0 0 0 0 0 0
-609 -888 -1051 -846 -817 -881 -925 -929 -890 -849 -916 -1042 -979 -907 -1031 -723 -516 -678 -710 -698 -610 -457 -368 -253 -222 -193 -409 0 0 0 0 0 0
-552 -593 -581 -655 -680 -739 -868 -939 -948 -1094 -1116 -1132 -1224 -1086 -991 -799 -714 -567 0 0 -496 -452 -312 -254 -373 0 0 0 0 0 0 0 0
-347 -531 -528 -480 -588 -816 -1024 -1253 -1400 -1325 -1312 -1319 -1224 -1113 -1076 -970 -118 0 0 0 0 0 0 0 0 0 0 0 0 0 0 0 0
-538 -590 -725 -916 -1105 -1447 0 0 -491 0 -476 -425 -369 -985 -694 0 0 0 0 0 0 0 0 0 0 0 0 0 0 0 0 0 0
-767 -736 -798 -950 -1229 -4 0 0 0 0 0 0 0 0 0 0 0 0 0 0 0 0 0 0 0 0 0 0 0 0 0 0 0
Wind_Speed
19 15 12 15 18 17 16 16 16 15 14 13 12 13 13 12 11 8 7 7 6 5 4 5 4 5 5 6 5 6 5 4 5
14 15 14 15 16 17 15 16 17 16 14 13 13 16 12 11 10 9 8 8 6 6 5 5 6 5 5 5 5 5 5 4 6
11 15 15 15 13 15 16 16 16 15 16 17 16 15 13 11 12 12 11 7 8 7 6 5 5 4 5 5 5 5 5 4 3
12 12 16 17 13 15 18 16 14 17 16 15 13 14 14 13 12 12 10 10 10 9 6 6 6 6 5 6 5 4 4 4 5
11 15 17 17 14 13 14 16 16 16 16 15 16 15 14 14 11 10 11 11 10 8 8 6 6 5 4 4 4 4 5 5 5
9 12 12 12 9 12 14 16 16 16 15 17 15 13 14 12 13 11 12 11 9 7 7 7 5 4 5 5 6 5 5 5 3
10 10 15 14 11 14 15 16 16 14 14 14 14 15 15 14 13 13 12 9 7 6 6 6 4 4 5 6 5 4 4 3 1
7 7 8 12 14 13 13 12 14 13 14 14 16 15 14 14 12 9 8 8 7 6 6 5 5 4 5 4 5 3 2 2 2
8 9 10 12 12 9 11 15 15 13 14 14 14 13 13 11 10 10 9 8 8 8 6 5 2 1 3 3 2 3 6 5 2
11 10 11 14 16 18 17 17 15 16 13 10 12 12 11 12 12 11 10 8 12 13 11 10 10 8 6 5 3 6 4 2 1
10 12 16 12 13 13 14 9 12 12 14 16 15 15 13 13 13 11 13 14 11 9 9 6 8 8 10 6 5 2 1 4 2
15 15 19 18 14 12 9 12 13 12 12 14 14 13 15 13 13 16 15 13 12 3 6 3 3 4 7 7 6 6 7 4 4
29 21 15 18 11 7 11 11 15 16 14 15 15 14 13 14 17 17 15 12 9 5 3 3 3 3 3 5 2 3 2 2 1
24 23 22 17 12 14 13 13 16 16 16 16 13 13 13 12 12 13 11 9 4 3 4 5 5 4 2 4 6 7 6 3 2
24 27 22 7 8 8 11 13 14 14 14 13 14 13 13 10 10 12 5 11 7 7 7 6 4 3 4 6 6 9 10 13 11
23 20 9 5 7 9 7 8 11 16 12 13 15 14 14 16 10 5 6 9 7 5 5 3 3 2 2 4 4 4 10 9 9
12 7 1 4 10 12 12 12 13 17 16 14 16 16 17 11 13 8 9 9 6 5 4 3 4 4 4 3 5 5 5 6 5
8 5 5 6 9 10 12 16 12 10 12 14 15 14 12 12 11 12 12 11 6 7 6 4 6 5 5 4 3 4 5 5 5
4 4 6 9 12 13 12 12 15 12 12 14 14 12 8 7 9 9 9 11 12 18 16 19 17 13 7 4 6 7 8 8 7
7 8 11 10 12 12 14 11 16 9 13 14 12 12 9 6 9 8 9 8 9 10 7 10 11 11 9 7 4 6 7 7 7
Wind_Direction
203 203 192 192 197 196 192 191 189 188 186 196 184 190 201 203 203 205 212 212 208 214 207 217 219 210 218 227 239 249 230 223 237
190 200 196 197 196 196 194 194 193 191 190 195 191 196 196 197 197 198 204 210 208 220 221 234 231 214 222 223 232 240 226 221 234
199 198 199 211 189 193 197 198 195 191 194 194 195 194 197 200 198 201 205 195 211 217 228 225 242 237 229 245 244 226 220 236 237
185 197 199 210 197 194 196 196 191 196 193 193 191 192 195 198 200 200 197 204 208 212 209 211 213 221 238 245 239 224 228 258 263
218 201 201 205 196 190 187 191 191 192 195 193 195 194 193 201 199 194 198 209 210 197 209 211 215 226 234 233 243 249 242 253 254
214 204 200 203 194 189 188 194 192 194 191 198 195 186 192 192 198 192 202 209 207 187 193 217 226 213 223 231 239 237 232 237 268
263 202 200 198 199 199 196 196 194 190 193 195 187 186 187 192 193 198 201 194 181 175 187 207 211 222 236 238 238 238 235 227 282
269 221 203 201 201 206 198 191 194 189 192 186 182 183 184 192 194 188 171 159 158 165 171 181 190 210 240 266 259 214 194 154 195
266 254 218 238 215 204 206 193 192 185 185 185 177 177 182 181 167 163 165 153 162 165 167 171 159 345 269 205 216 139 171 179 204
297 283 244 221 219 203 204 200 180 188 179 152 166 169 173 170 166 161 164 128 96 95 98 104 93 36 341 244 236 201 166 130 248
297 317 308 257 236 230 210 172 184 158 161 170 174 165 169 168 164 145 121 129 134 160 177 147 148 138 201 243 252 192 157 233 237
323 313 303 291 249 241 162 164 157 156 158 162 158 176 167 164 146 134 148 148 166 51 106 191 45 82 159 192 222 197 209 192 195
318 312 289 284 264 165 156 165 154 146 157 166 171 168 161 150 153 150 159 153 111 138 164 147 136 87 129 191 221 203 348 183 192
301 290 302 274 202 187 176 161 152 153 158 175 153 144 141 139 139 144 128 114 67 97 125 109 98 156 176 79 36 47 44 137 138
298 302 309 225 175 154 144 153 149 151 156 141 131 133 129 123 109 115 109 106 117 108 104 121 146 90 79 70 68 51 51 56 58
307 302 277 163 157 126 126 131 145 129 122 123 119 113 105 107 57 85 108 107 101 89 98 107 109 103 86 90 75 54 35 38 35
298 296 270 117 128 117 104 106 116 127 136 133 120 112 106 109 112 96 64 58 56 76 69 72 68 88 93 72 48 33 16 16 8
320 25 80 117 107 103 103 108 101 105 112 110 103 104 110 108 111 104 87 68 57 76 30 66 100 73 75 72 43 18 13 13 352
13 41 73 93 104 105 93 90 85 76 73 86 92 86 77 80 94 96 95 100 90 55 77 80 75 67 71 75 58 22 11 2 353
104 120 123 120 117 106 91 85 83 85 94 92 93 101 98 93 94 111 120 111 108 114 72 80 90 82 68 68 68 38 18 16 21